Regional Weather Roundup
Issued by NWS Charleston, SC

Current Version | Previous Version | Graphics & Text | Print | Product List | Glossary On
Versions: 1 2 3 4 5 6 7 8 9 10 11 12 13 14 15 16 17 18 19 20 21 22 23 24 25 26 27 28 29 30 31 32 33 34 35 36 37 38 39 40 41 42 43 44 45 46 47 48 49 50
712
ASUS42 KCHS 231312
RWRCHS

REGIONAL WEATHER ROUNDUP
NATIONAL WEATHER SERVICE CHARLESTON SC
800 AM EST MON JAN 23 2017

NOTE: "FAIR" INDICATES FEW OR NO CLOUDS BELOW 12,000 FEET WITH NO
SIGNIFICANT WEATHER AND/OR OBSTRUCTIONS TO VISIBILITY.

NOT ALL STATIONS ARE QUALITY CONTROLLED. USE DATA WITH CAUTION...
ESPECIALLY DEWPOINT OBSERVATIONS.

SCZ027-030-031-034>040-042>050-231400-
...SOUTHEAST SOUTH CAROLINA...

CITY           SKY/WX    TMP DP  RH WIND       PRES   REMARKS
N CHARLESTON   PTCLDY    53  48  83 S9        29.31R
WATERFRONT PRK   N/A     56  52  86 SW8       29.30S
MOUNT PLEASANT FAIR      55  50  82 S7        29.31S
JOHNS ISLAND   FAIR      55  50  82 SW9       29.32S
PINOPOLIS        N/A     52  50  93 VRB2      29.22S
MONCKS CORNER  FAIR      50  48  93 S5        29.30S
SUMMERVILLE    FAIR     N/A N/A N/A S3        29.30S
BEAUFORT MCAS  CLOUDY    56  49  77 S9        29.30S
BEAUFORT ARPT  FAIR      55  50  82 S9        29.29F
HILTON HEAD IS MOCLDY    55  50  82 SW13      29.31F
WALTERBORO     CLOUDY    52  48  87 S6        29.30S
ALLENDALE      LGT RAIN  52  50  93 VRB3      29.27R

...SOUTHERN MIDLANDS AND PEE DEE...

CITY           SKY/WX    TMP DP  RH WIND       PRES   REMARKS
GEORGETOWN     FAIR      52  50  93 S6        29.32S
KINGSTREE      FAIR      50  46  87 SE8       29.30R
ORANGEBURG     LGT RAIN  51  49  92 SW7       29.27S
BARNWELL       DRIZZLE   52  50  93 CALM      29.27R
AIKEN          DRIZZLE   46  46 100 S6        29.28S
MANNING        FAIR      48  32  53 S5        29.28S
COLUMBIA       LGT RAIN  50  48  93 SE6       29.25R
SUMTER         MOCLDY    48  47  95 S3        29.25S
FLORENCE       CLEAR     50  48  93 S8        29.29R
MYRTLE BEACH   CLEAR     50  45  81 S7        29.34R
N MYRTLE BEACH CLEAR     51  49  92 S3        29.32R

$$

GAZ063-065-086>088-099>101-113>116-118-119-134>141-150-231400-
...SOUTHEAST GEORGIA...

CITY           SKY/WX    TMP DP  RH WIND       PRES   REMARKS
SAVANNAH ARPT  LGT RAIN  54  47  77 SW12      29.30F
HUNTER AAF     CLOUDY    55  53  93 SW12      29.28S
FORT STEWART   RAIN      52  48  84 S6        29.29R
STATESBORO     RAIN      52  52 100 S7        29.28S
SYLVANIA       RAIN     N/A N/A N/A CALM      29.29R
CLAXTON        LGT RAIN N/A N/A N/A CALM      29.29R

...CSRA...CENTRAL AND FAR SOUTHEAST GEORGIA...

CITY           SKY/WX    TMP DP  RH WIND       PRES   REMARKS
THOMSON        CLOUDY    51  51 100 CALM      29.30R
AUGUSTA-BUSH   CLOUDY    52  48  86 SW5       29.25S
AUGUSTA-DANIEL CLOUDY    51  46  83 CALM      29.26R
SWAINSBORO     DRIZZLE   50  50 100 SW6       29.26S
VIDALIA        DRIZZLE   52  52 100 SW12G25   29.28R
EASTMAN        LGT RAIN  53  52  96 W7G16     29.30R
HAZLEHURST     LGT RAIN  53  51  94 SW8G23    29.28S
ALMA           CLOUDY    52  48  86 SW10      29.31R
WAYCROSS       CLOUDY    56  52  88 SW16G22   29.34R
JESUP          DRIZZLE   54  46  76 SW8       29.32S
BAXLEY         CLOUDY    54  52  94 SW8G20    29.30S
BRUNSWICK      MOCLDY    55  50  82 SW14      29.35S
SAINT SIMONS   PTCLDY    56  48  74 SW17      29.35R

$$

SCZ027-028-034-036>038-045-046-048>050-GAZ119-141-231400-
...LAKE AND SUPPLEMENTAL COASTAL OBSERVATIONS...

STATION/POSITION TIME  TEMP    WIND        PRES    WAVE   SWELL
                       AIR SEA DIR/SP/G            HT/PER HT/PER/DIR
                 (UTC) (F)     (DEG/KT/KT) (MB)    (FT/S) (FT/S/D)
WINYAH BAY       NOT AVBL
LAKE MURRAY      1220   52     210/  5/  9  990.2R
ACE BASIN NERRS  1145   55     220/  3      992.0
FORT PULASKI     1236   56 59  220/  9/ 15  992.5F
SAPELO ISLAND    1200   55     220/ 12      993.0

$$

ANZ835-935-AMZ111-154-330-350-352-354-370-450-454-472-231400-
...C-MAN AND BUOY OBSERVATIONS...

STATION/POSITION TIME  TEMP    WIND        PRES    WAVE   SWELL
                       AIR SEA DIR/SP/G            HT/PER HT/PER/DIR
                 (UTC) (F)     (DEG/KT/KT) (MB)    (FT/S) (FT/S/D)
BUOY 41004       1150   64 67  230/ 19/ 25  992.2    9/ 8   5/180/10
BUOY 41008       1150   59 60  220/ 23/ 27  992.7    4/ 5   2/130/ 7
FOLLY BEACH CMAN 1200   58     220/ 16/ 18  993.1R
CAPERS NEARSHORE 1208   58 56  220/ 12/ 16  992.5R
FRIPP NEARSHORE  1208   58 58  240/ 17/ 21  992.8R


STATION/POSITION TIME  TEMP    WIND        PRES    WAVE   SWELL
                       AIR SEA DIR/SP/G            HT/PER HT/PER/DIR
                 (UTC) (F)     (DEG/KT/KT) (MB)    (FT/S) (FT/S/D)
5E ST. MARYS GA  1230      62                N/A     3/ 6   2/100/13
FRYING PAN BUOY  1250   63 69  230/ 16/ 21  993.6R  11/10  10/200/10
BUOY 41025       1250   70 72  240/ 23/ 29  991.4R   9/ 7   3/ 90/11
CAPE LOOKOUT NC  1200   60     220/ 11/ 15  991.4R
BUOY 41002       1150   68 71  180/ 21/ 25  996.6   16/10  11/190/10
BUOY 41010       NOT AVBL
ST AUGUSTINE FL  1200   57 64  220/  6/  8  996.8R


$$




USA.gov is the U.S. government's official web portal to all federal, state and local government web resources and services.